[[{"header":{"parameterUnit":"m.s-1","parameterCategory":1,"la1":30.2991,"la2":30.254,"lo1":-89.0895,"lo2":-89.0444,"dy":0.0017,"dx":0.0017,"nx":28,"ny":28,"refTime":"2024-05-04T21:00:00:Z","depth":0,"parameterNumber":2,"parameterNumberName":"U-component_of_WINDS"},"data":[0,0,0,0,0,0,0,0,0,0,0,0,0,0,0,0,0,0,0,0,0,0,0,0,0,0,0,0,0,0,0,0,0,0,0,0,0,0,0,0,0,0,0,0,0,0,0,0,0,0,0,0,0,0,0,0,0,0,-0.527,-0.527,0,-0.5245,-0.5244,-0.5244,-0.5216,-0.5216,-0.5216,-0.5215,-0.5191,-0.5191,-0.519,0,0,0,0,0,0,0,0,0,0,0,0,0,-0.5297,-0.5297,-0.527,-0.527,-0.5269,-0.5245,-0.5244,-0.5244,-0.5217,-0.5216,-0.5216,-0.5215,-0.5191,-0.5191,-0.519,0,0,0,0,0,0,0,0,0,0,0,0,0,-0.528,-0.5297,-0.527,-0.5253,-0.5251,-0.5245,-0.5244,-0.5244,-0.5217,-0.5216,-0.5215,-0.5215,-0.5191,-0.5191,-0.519,-0.52,0,0,-0.5189,-0.5189,0,0,0,0,0,0,0,0,-0.5281,-0.5279,-0.5256,-0.5254,-0.5252,-0.5233,-0.5245,-0.5229,-0.5217,-0.523,-0.5215,-0.5215,-0.5206,-0.5204,-0.5201,-0.5199,-0.5198,-0.5189,-0.5189,-0.5189,-0.5189,0,0,0,0,0,0,0,-0.5282,-0.528,-0.526,-0.5255,-0.5253,-0.5247,-0.5244,-0.5242,-0.5221,-0.5229,-0.5226,-0.5224,-0.5204,-0.5201,-0.52,-0.5197,-0.5189,-0.5189,-0.5189,-0.5188,-0.5203,-0.5204,0,0,0,0,0,0,-0.5286,-0.5281,-0.5261,-0.5259,-0.5265,-0.5247,-0.5243,-0.524,-0.5221,-0.5218,-0.5224,-0.5223,-0.5202,-0.52,-0.5199,-0.5209,-0.5189,-0.5188,-0.5188,-0.5202,-0.5203,-0.5204,0,0,0,0,0,0,-0.5286,-0.5284,-0.5262,-0.527,-0.5266,-0.5247,-0.5243,-0.524,-0.5236,-0.5218,-0.5214,-0.5224,-0.5201,-0.5199,-0.52,-0.5208,-0.5188,-0.5188,-0.5202,-0.5203,-0.5203,-0.523,0,0,0,0,0,0,-0.5287,-0.5285,-0.5287,-0.527,-0.5266,-0.5263,-0.5244,-0.5239,-0.5235,-0.5233,-0.5217,-0.5214,-0.5201,-0.5201,-0.52,-0.5207,-0.5187,-0.5201,-0.5202,-0.5203,-0.5228,-0.5232,-0.5234,0,0,0,0,0,-0.5288,-0.5296,-0.5288,-0.5285,-0.5269,-0.5263,-0.5261,-0.5245,-0.5236,-0.5239,-0.5228,-0.5215,-0.5207,-0.5201,-0.5199,-0.5207,-0.52,-0.5202,-0.5203,-0.5227,-0.5231,-0.5234,0,0,0,0,0,0,-0.5316,-0.5293,-0.5284,-0.5286,-0.5277,-0.5259,-0.5262,-0.525,-0.5244,-0.5242,-0.5223,-0.522,-0.5222,-0.5215,-0.5208,-0.5216,-0.5202,-0.5203,-0.522,-0.5224,-0.5227,-0.5229,-0.5187,0,0,0,0,0,-0.5322,-0.5318,-0.5299,-0.5303,-0.5299,-0.5281,-0.5278,-0.5267,-0.5257,-0.5253,-0.5241,-0.5232,-0.5228,-0.5226,-0.5221,-0.5227,-0.5224,-0.5231,-0.5235,-0.5237,-0.5239,-0.5242,-0.5245,-0.5208,-0.5208,-0.5208,0,0,-0.5335,-0.5322,-0.5321,-0.5308,-0.53,-0.5297,-0.5278,-0.5276,-0.5275,-0.5253,-0.5252,-0.5244,-0.5233,-0.5236,-0.5237,-0.523,-0.5248,-0.5239,-0.5241,-0.5241,-0.5244,-0.5247,-0.525,-0.5209,-0.5209,-0.5209,0,0,-0.5357,-0.5347,-0.5349,-0.5341,-0.5328,-0.5316,-0.5317,-0.5301,-0.5294,-0.5293,-0.5277,-0.5275,-0.5268,-0.5261,-0.5256,-0.5277,-0.5265,-0.5276,-0.5292,-0.5296,-0.5299,-0.5301,-0.5309,-0.5312,-0.5277,-0.5277,-0.5277,0,-0.5375,-0.537,-0.5352,-0.5351,-0.5346,-0.5326,-0.5329,-0.5322,-0.5308,-0.5306,-0.5298,-0.5289,-0.528,-0.5282,-0.5287,-0.5283,-0.5284,-0.5277,-0.53,-0.5302,-0.5304,-0.5311,-0.5314,-0.5279,-0.5278,-0.5278,-0.5278,0,-0.5393,-0.539,-0.5393,-0.538,-0.5376,-0.5377,-0.536,-0.5358,-0.5347,-0.5336,-0.5336,-0.5325,-0.5318,-0.5317,-0.5307,-0.5318,-0.5314,-0.5303,-0.5289,-0.5309,-0.5316,-0.5318,-0.5281,-0.528,-0.528,-0.5279,0,0,-0.5432,-0.5409,-0.5411,-0.5405,-0.5389,-0.5387,-0.5387,-0.5379,-0.5378,-0.537,-0.537,-0.5365,-0.5355,-0.535,-0.5338,-0.5341,-0.5359,-0.533,-0.5329,-0.5336,-0.5371,-0.5379,-0.5383,-0.5351,-0.5351,-0.5351,-0.5372,0,-0.5452,-0.5451,-0.5435,-0.5438,-0.5436,-0.5416,-0.5417,-0.5408,-0.5398,-0.5395,-0.5384,-0.5381,-0.5368,-0.5365,-0.5367,-0.5356,-0.5366,-0.5354,-0.5351,-0.5352,-0.5355,-0.5386,-0.5395,-0.5415,-0.5374,-0.5375,-0.5375,0,-0.5475,-0.5468,-0.5471,-0.5455,-0.5453,-0.5454,-0.5446,-0.5443,-0.5433,-0.5425,-0.542,-0.5407,-0.5407,-0.5394,-0.5394,-0.5387,-0.5385,-0.538,-0.538,-0.5379,-0.5365,-0.5387,-0.5421,-0.5424,-0.5379,-0.5378,-0.5378,0,-0.5504,-0.5495,-0.5495,-0.5491,-0.5473,-0.5474,-0.5466,-0.5455,-0.5452,-0.5445,-0.5443,-0.5436,-0.5433,-0.5428,-0.5414,-0.5406,-0.5417,-0.5402,-0.5411,-0.5412,-0.5415,-0.5415,-0.5449,-0.5413,-0.5413,-0.5413,-0.5413,0,-0.5528,-0.5531,-0.5508,-0.5508,-0.5511,-0.5493,-0.5497,-0.5488,-0.5478,-0.5477,-0.546,-0.546,-0.5441,-0.5439,-0.5428,-0.543,-0.5429,-0.5424,-0.5421,-0.5425,-0.5426,-0.5424,-0.5422,-0.5414,-0.5413,-0.5413,-0.5413,0,-0.5561,-0.5546,-0.5545,-0.5528,-0.5524,-0.5527,-0.5512,-0.5513,-0.5502,-0.5501,-0.55,-0.5483,-0.5479,-0.5465,-0.5458,-0.5451,-0.5457,-0.5451,-0.546,-0.5458,-0.5469,-0.5468,-0.5504,-0.5508,-0.5468,-0.5469,-0.5469,0,-0.5578,-0.558,-0.5563,-0.556,-0.5554,-0.555,-0.5546,-0.5529,-0.5526,-0.5514,-0.5516,-0.5511,-0.5506,-0.5502,-0.549,-0.5484,-0.5479,-0.5491,-0.5478,-0.5482,-0.5479,-0.548,-0.548,-0.5494,-0.5495,-0.5495,-0.5496,0,-0.561,-0.5602,-0.5597,-0.5589,-0.5585,-0.5578,-0.5571,-0.557,-0.5551,-0.5548,-0.5544,-0.554,-0.5533,-0.5528,-0.5521,-0.5514,-0.5502,-0.55,-0.5502,-0.5507,-0.5512,-0.551,-0.5469,-0.5499,-0.5499,-0.5499,-0.5498,-0.5498,-0.5636,-0.5637,-0.5625,-0.5619,-0.5612,-0.5605,-0.5604,-0.5593,-0.5589,-0.5581,-0.5571,-0.5569,-0.5559,-0.5548,-0.5542,-0.554,-0.5533,-0.5536,-0.5537,-0.5538,-0.554,-0.5512,-0.5539,-0.5539,-0.5539,-0.5538,-0.5538,0,-0.5667,-0.5659,-0.5654,-0.5643,-0.564,-0.5627,-0.5618,-0.5616,-0.5614,-0.5605,-0.56,-0.5596,-0.5592,-0.5579,-0.5573,-0.5574,-0.5569,-0.5574,-0.5574,-0.5573,-0.5547,-0.5546,-0.5578,-0.5578,-0.5578,-0.5578,-0.5578,-0.5578,-0.5684,-0.5684,-0.5675,-0.5672,-0.5663,-0.5659,-0.5655,-0.5649,-0.5642,-0.5638,-0.5634,-0.5625,-0.5615,-0.5609,-0.5605,-0.5601,-0.56,-0.5607,-0.5602,-0.5578,-0.5574,-0.5571,-0.557,-0.5607,-0.5607,-0.5628,-0.5628,-0.5628]},{"header":{"parameterUnit":"m.s-1","parameterCategory":1,"la1":30.2991,"la2":30.254,"lo1":-89.0895,"lo2":-89.0444,"dy":0.0017,"dx":0.0017,"nx":28,"ny":28,"refTime":"2024-05-04T21:00:00:Z","depth":0,"parameterNumber":3,"parameterNumberName":"V-component_of_WINDS"},"data":[0,0,0,0,0,0,0,0,0,0,0,0,0,0,0,0,0,0,0,0,0,0,0,0,0,0,0,0,0,0,0,0,0,0,0,0,0,0,0,0,0,0,0,0,0,0,0,0,0,0,0,0,0,0,0,0,0,0,3.2194,3.2194,0,3.2173,3.2173,3.2173,3.2159,3.2158,3.2158,3.2158,3.2135,3.2135,3.2134,0,0,0,0,0,0,0,0,0,0,0,0,0,3.222,3.222,3.2194,3.2194,3.2193,3.2173,3.2173,3.2173,3.2159,3.2158,3.2158,3.2158,3.2135,3.2135,3.2134,0,0,0,0,0,0,0,0,0,0,0,0,0,3.2205,3.222,3.2194,3.2184,3.2183,3.2173,3.2173,3.2172,3.2159,3.2158,3.2158,3.2158,3.2135,3.2135,3.2134,3.2132,0,0,3.2132,3.2131,0,0,0,0,0,0,0,0,3.2206,3.2204,3.2186,3.2185,3.2183,3.2168,3.2174,3.2159,3.2159,3.2168,3.2158,3.2158,3.2146,3.2144,3.2141,3.2131,3.213,3.2131,3.2131,3.2131,3.213,0,0,0,0,0,0,0,3.2207,3.2205,3.2186,3.2186,3.2184,3.218,3.2178,3.2171,3.2158,3.2167,3.2166,3.2164,3.2145,3.2142,3.214,3.2129,3.2131,3.2131,3.213,3.213,3.2117,3.2117,0,0,0,0,0,0,3.221,3.2206,3.2186,3.2185,3.2195,3.218,3.2177,3.2173,3.2158,3.2156,3.2164,3.2163,3.2143,3.2141,3.2139,3.2136,3.2131,3.213,3.2129,3.2117,3.2117,3.2117,0,0,0,0,0,0,3.221,3.2208,3.2187,3.2195,3.2192,3.218,3.2175,3.2173,3.2169,3.2156,3.2153,3.2162,3.2143,3.214,3.2134,3.2135,3.213,3.2129,3.2116,3.2117,3.2117,3.2129,0,0,0,0,0,0,3.2211,3.2209,3.2208,3.2195,3.2192,3.2183,3.2175,3.2173,3.2168,3.2167,3.2154,3.2151,3.2143,3.2135,3.2133,3.2134,3.2128,3.2116,3.2116,3.2117,3.2128,3.2129,3.213,0,0,0,0,0,3.2212,3.2212,3.2208,3.2206,3.2191,3.2183,3.2181,3.2171,3.2168,3.2167,3.2159,3.2152,3.2135,3.2135,3.2132,3.2132,3.2116,3.2116,3.2117,3.2128,3.2129,3.213,0,0,0,0,0,0,3.2224,3.221,3.2206,3.2201,3.2193,3.218,3.2179,3.2173,3.2165,3.2165,3.2153,3.215,3.2144,3.2138,3.2137,3.213,3.2125,3.2125,3.2134,3.2135,3.2136,3.2138,3.2128,0,0,0,0,0,3.2226,3.2221,3.2209,3.2206,3.2203,3.2192,3.2188,3.2181,3.2172,3.2169,3.216,3.2151,3.2144,3.2139,3.2132,3.2127,3.2124,3.2126,3.2127,3.2128,3.2128,3.2125,3.2126,3.2118,3.2118,3.2118,0,0,3.2231,3.2222,3.222,3.2208,3.2202,3.2196,3.2189,3.2183,3.2179,3.2168,3.2161,3.2154,3.2144,3.2138,3.2135,3.2133,3.213,3.2129,3.2129,3.2129,3.2125,3.2126,3.2127,3.2118,3.2118,3.2118,0,0,3.2235,3.2229,3.2226,3.2219,3.221,3.2202,3.2202,3.219,3.2185,3.2178,3.217,3.2164,3.2152,3.2145,3.214,3.2143,3.2136,3.2141,3.2146,3.2143,3.2143,3.2144,3.2145,3.2145,3.214,3.214,3.2141,0,3.2242,3.2234,3.2225,3.222,3.2215,3.2206,3.2202,3.2196,3.2184,3.2181,3.2178,3.2163,3.2155,3.2148,3.2149,3.2145,3.2143,3.2142,3.2144,3.2145,3.2145,3.2145,3.2146,3.2141,3.2141,3.2141,3.2141,0,3.2242,3.2237,3.2235,3.2225,3.222,3.2216,3.2206,3.2202,3.2196,3.2189,3.2182,3.2172,3.2163,3.2161,3.2155,3.2153,3.2151,3.2147,3.2141,3.2147,3.2147,3.2147,3.2142,3.2142,3.2142,3.2141,0,0,3.2253,3.2238,3.2238,3.2233,3.2221,3.2217,3.2212,3.2204,3.2201,3.2193,3.2188,3.2179,3.2174,3.2168,3.2161,3.2159,3.2162,3.2155,3.2154,3.2156,3.2159,3.2162,3.2162,3.2158,3.2158,3.2158,3.2159,0,3.2256,3.2248,3.224,3.2234,3.2229,3.222,3.2216,3.2208,3.2202,3.2196,3.2188,3.2182,3.2177,3.2173,3.2171,3.2162,3.2162,3.2162,3.2153,3.2152,3.2155,3.2162,3.2166,3.2168,3.2159,3.2159,3.2159,0,3.2258,3.2252,3.2246,3.2235,3.2233,3.2229,3.2221,3.2216,3.2207,3.2202,3.2196,3.2189,3.2183,3.2179,3.2171,3.2171,3.2167,3.2162,3.2162,3.216,3.2156,3.216,3.2168,3.2169,3.216,3.216,3.216,0,3.2267,3.2256,3.2251,3.2247,3.2235,3.2233,3.2227,3.2218,3.2214,3.2206,3.2203,3.2195,3.219,3.2184,3.2175,3.2173,3.2167,3.2162,3.2163,3.2163,3.2161,3.2162,3.2168,3.216,3.216,3.216,3.216,0,3.227,3.2267,3.2255,3.2252,3.2248,3.2239,3.2235,3.2228,3.2221,3.2216,3.2207,3.2203,3.2191,3.2185,3.2178,3.2172,3.217,3.2166,3.2164,3.2166,3.2167,3.2163,3.2162,3.216,3.216,3.216,3.216,0,3.2279,3.227,3.2265,3.2254,3.2251,3.2248,3.2238,3.2235,3.2228,3.2222,3.222,3.2209,3.2202,3.2192,3.2182,3.2177,3.2172,3.2169,3.2175,3.2174,3.2174,3.2174,3.2178,3.2178,3.217,3.217,3.217,0,3.2281,3.2279,3.2268,3.2264,3.2259,3.2254,3.2249,3.224,3.2236,3.2226,3.2223,3.2215,3.2209,3.2197,3.2188,3.218,3.2176,3.2178,3.2175,3.2178,3.2176,3.2176,3.2176,3.2179,3.2179,3.2179,3.2179,0,3.2287,3.2283,3.2277,3.227,3.2265,3.2259,3.2252,3.225,3.2239,3.2234,3.2227,3.2222,3.2212,3.2204,3.2195,3.2188,3.2182,3.2181,3.218,3.2183,3.2186,3.2184,3.2177,3.218,3.218,3.218,3.218,3.218,3.2292,3.2289,3.2281,3.2275,3.2269,3.2263,3.226,3.2253,3.2247,3.2238,3.2233,3.2226,3.2217,3.2204,3.2198,3.2192,3.219,3.2189,3.2189,3.2189,3.2189,3.2188,3.219,3.219,3.219,3.219,3.219,0,3.2297,3.2292,3.2286,3.2277,3.2272,3.2268,3.226,3.2256,3.225,3.2243,3.2237,3.2228,3.2221,3.2211,3.2203,3.22,3.2197,3.2198,3.2198,3.2196,3.2192,3.2193,3.2201,3.2201,3.2201,3.2201,3.2201,3.2201,3.2299,3.2294,3.2289,3.2281,3.2276,3.2269,3.2265,3.226,3.2254,3.2245,3.2239,3.2233,3.2225,3.2216,3.2209,3.2206,3.2203,3.2205,3.2202,3.2198,3.2197,3.2196,3.2197,3.2205,3.2205,3.2206,3.2207,3.2207]}]]